Date,TemperatureHighF,TemperatureAvgF,TemperatureLowF,DewpointHighF,DewpointAvgF,DewpointLowF,HumidityHigh,HumidityAvg,HumidityLow,PressureMaxIn,PressureMinIn,WindSpeedMaxMPH,WindSpeedAvgMPH,GustSpeedMaxMPH,PrecipitationSumIn
2013-5-1,82,59,37,41,19,-20,76,35,2,30.18,30.06,7,1,7,0.00
2013-5-2,89,58,41,47,34,-13,76,48,2,30.18,30.03,12,2,12,0.00
2013-5-3,70,52,41,44,38,35,90,62,37,30.24,30.06,8,2,8,0.00
2013-5-4,71,51,39,45,36,27,92,61,23,30.06,29.97,57,1,57,0.00
2013-5-5,73,51,34,42,36,32,94,61,32,30.03,29.94,6,1,6,0.00
2013-5-6,80,55,35,46,41,32,95,65,21,30.00,29.82,6,1,6,0.00
2013-5-7,89,53,42,56,45,40,95,80,23,29.88,29.76,9,0,9,0.00
2013-5-8,80,64,53,62,57,51,97,81,46,29.94,29.76,9,1,9,0.00
2013-5-9,70,59,55,65,58,54,98,95,76,29.79,29.59,4,1,4,0.58
2013-5-10,88,67,55,64,56,53,98,73,34,29.68,29.59,6,1,6,0.00
2013-5-11,69,62,58,63,59,55,98,90,76,29.65,29.41,8,1,8,0.13
2013-5-12,78,61,45,60,50,27,98,71,38,29.68,29.26,9,1,9,0.08
2013-5-13,67,50,40,36,28,23,63,44,26,29.71,29.47,10,1,10,0.08
2013-5-14,68,50,37,35,29,23,76,47,25,29.76,29.65,10,1,10,0.08
2013-5-15,75,47,34,51,34,25,91,64,21,29.76,29.35,6,1,6,0.04
2013-5-16,88,66,46,54,35,-16,97,49,2,29.50,29.29,12,2,12,0.00
2013-5-17,75,59,48,44,38,32,70,47,30,29.94,29.50,10,2,229,0.00
2013-5-18,82,59,41,48,42,35,91,59,22,30.00,29.88,6,1,6,0.00
2013-5-19,78,58,50,54,50,48,96,78,43,30.06,29.91,5,0,5,0.21
2013-5-20,88,67,54,66,60,53,98,79,43,29.91,29.65,6,0,6,0.04
2013-5-21,77,59,49,68,56,48,98,90,62,29.76,29.59,7,1,7,0.04
2013-5-22,61,54,49,59,53,49,98,95,86,29.79,29.59,5,0,5,1.66
2013-5-23,78,62,52,73,60,51,98,95,79,29.65,29.50,6,1,6,0.50
2013-5-24,75,62,49,70,60,48,98,91,70,29.59,29.35,115,1,115,1.24
2013-5-25,53,47,39,51,46,36,98,96,86,29.56,29.41,57,2,57,0.42
2013-5-26,66,48,38,44,38,34,98,72,44,29.79,29.35,11,2,11,0.12
2013-5-27,79,57,38,45,37,21,96,56,18,29.91,29.76,8,1,8,0.00
2013-5-28,81,60,41,48,42,37,89,57,25,29.97,29.88,5,0,5,0.00
2013-5-29,68,60,52,64,58,47,98,92,84,29.91,29.71,0,0,0,0.46
2013-5-30,60,59,59,60,59,58,98,98,98,29.74,29.71,0,0,0,0.00